Volver al catálogo

STARLINK-30962

ActivoComunicacionesVLEO
NORAD 58458·PAYLOAD·🇺🇸 United States

Lanzado Nov 28, 2023 desde Cape Canaveral Space Force Station

Loading…

Próximos Pases (próximas 24 horas)

TLE

ActualizadoSource: CelesTrak SupGP

Época: Sep 14, 2026, 21:07 UTC

1 58458C 23183X   26257.88034722  .00064716  00000+0  23438-2 0  2575
2 58458  43.0040  52.7372 0001300 273.9992  87.2811 15.27549638    12

Sigue STARLINK-30962 en tiempo real con AllMySat

Download on the App Store